Weather History for KSSI - May, 2013

Change the Weather History Date:

Saturday, May 11, 2013

  Actual Average Record
Temperature  
Mean Temperature 77 °F 73 °F  
Max Temperature 86 °F 81 °F 96 °F (1973)
Min Temperature 68 °F 65 °F 51 °F (1997)
Degree Days  
Heating Degree Days 0 0  
Month to date heating degree days 1 2  
Since 1 July heating degree days 1268 1486  
Cooling Degree Days 12 8  
Month to date cooling degree days 53 79  
Year to date cooling degree days 199 222  
Growing Degree Days 26 (Base 50)    
Moisture  
Dew Point 66 °F    
Average Humidity 71    
Maximum Humidity 90    
Minimum Humidity 51    
Precipitation  
Precipitation 0.02 in 0.05 in 1.14 in (2008)
Month to date precipitation 3.25 0.57  
Year to date precipitation 12.27 13.63  
Snow  
Snow 0.00 in - 0.00 in ()
Month to date snowfall 0.0  
Since 1 July snowfall 0.0  
Snow Depth 0.00 in    
Sea Level Pressure  
Sea Level Pressure 29.99 in    
Wind  
Wind Speed 7 mph (SW)    
Max Wind Speed 18 mph    
Max Gust Speed 24 mph    
Visibility 10 miles    
Events      
T = Trace of Precipitation, MM = Missing Value Source: NWS Daily Summary

Daily Weather History Graph

Daily Weather History Graph

Search for Another Location

Airport or City:

Trip Planner

Search our weather history database for the weather conditions in past years. The results will help you decide how hot, cold, wet, or windy it might be!

Date:

Astronomy

May. 11, 2013 Rise Set
Actual Time 6:32 AM EDT 8:11 PM EDT
Civil Twilight 6:06 AM EDT 8:38 PM EDT
Nautical Twilight 5:34 AM EDT 9:09 PM EDT
Astronomical Twilight 5:01 AM EDT 9:43 PM EDT
Moon 7:41 AM EDT (5/11) 9:48 PM EDT (5/11)
Length of Visible Light 14h 31m
Length of Day
13h 39m
Waxing Crescent, 3% of the Moon is Illuminated
May 11
Waxing Crescent
May 18
First Quarter
May 25
Full
May 31
Last Quarter
Jun 8
New

Hourly Weather History & Observations

Time (EDT) Temp. Heat Index Dew Point Humidity Pressure Visibility Wind Dir Wind Speed Gust Speed Precip Events Conditions
12:53 AM 73.0 °F - 69.1 °F 87% 30.04 in 10.0 mi South 5.8 mph - N/A   Clear
1:53 AM 73.0 °F - 69.1 °F 87% 30.02 in 10.0 mi South 6.9 mph 17.3 mph N/A   Clear
2:53 AM 72.0 °F - 68.0 °F 87% 30.01 in 10.0 mi SSW 5.8 mph - N/A   Clear
3:53 AM 69.1 °F - 64.9 °F 87% 30.01 in 10.0 mi WSW 5.8 mph - N/A   Clear
4:53 AM 68.0 °F - 63.0 °F 84% 30.00 in 10.0 mi WSW 4.6 mph - N/A   Clear
5:53 AM 68.0 °F - 63.0 °F 84% 30.01 in 10.0 mi WSW 3.5 mph - N/A   Scattered Clouds
6:53 AM 68.0 °F - 62.1 °F 81% 30.02 in 10.0 mi WSW 5.8 mph - N/A   Scattered Clouds
7:53 AM 69.1 °F - 63.0 °F 81% 30.02 in 10.0 mi Calm Calm - N/A   Partly Cloudy
8:53 AM 70.0 °F - 64.0 °F 81% 30.02 in 10.0 mi SW 5.8 mph - N/A   Partly Cloudy
9:53 AM 73.9 °F - 64.0 °F 71% 30.02 in 10.0 mi SW 6.9 mph - N/A   Scattered Clouds
10:53 AM 77.0 °F - 64.0 °F 64% 30.01 in 10.0 mi SW 8.1 mph - N/A   Clear
11:53 AM 81.0 °F 82.7 °F 64.9 °F 58% 30.00 in 10.0 mi SW 10.4 mph - N/A   Clear
12:53 PM 84.0 °F 85.4 °F 64.0 °F 51% 29.99 in 10.0 mi WSW 9.2 mph 19.6 mph N/A   Clear
1:53 PM 84.9 °F 86.1 °F 64.0 °F 49% 29.96 in 10.0 mi SSW 8.1 mph - N/A   Partly Cloudy
2:53 PM 80.1 °F 82.7 °F 68.0 °F 67% 29.96 in 10.0 mi SSE 6.9 mph - N/A   Scattered Clouds
3:53 PM 81.0 °F 84.1 °F 69.1 °F 67% 29.95 in 10.0 mi SE 9.2 mph - N/A   Scattered Clouds
4:53 PM 80.6 °F 83.9 °F 69.8 °F 70% 29.93 in 10.0 mi SSE 3.5 mph - N/A   Scattered Clouds
5:53 PM 82.9 °F 84.4 °F 64.0 °F 53% 29.93 in 10.0 mi WSW 9.2 mph - N/A   Clear
6:53 PM 78.1 °F - 66.9 °F 68% 29.95 in 10.0 mi SW 10.4 mph - N/A   Mostly Cloudy
7:53 PM 75.9 °F - 64.9 °F 69% 29.98 in 10.0 mi WSW 16.1 mph 24.2 mph N/A   Mostly Cloudy
8:53 PM 71.1 °F - 68.0 °F 90% 29.97 in 10.0 mi West 6.9 mph - 0.02 in   Scattered Clouds
9:53 PM 72.0 °F - 66.9 °F 84% 29.96 in 10.0 mi SW 5.8 mph - N/A   Clear
10:53 PM 71.1 °F - 68.0 °F 90% 29.96 in 10.0 mi SSW 8.1 mph - N/A   Clear
11:53 PM 71.1 °F - 66.9 °F 87% 29.98 in 10.0 mi SW 10.4 mph - N/A   Clear